This is the latest recevied weather packets stored in our database for station/object OE3APM-13. If no packets are shown the sender has not sent any weather packets the latest 10 day(s).
| Time | Temp. | Humidity | Pressure | Rain* | Wind** | Luminosity | Snow |
|---|---|---|---|---|---|---|---|
| 1777796323 | 18.33° C | 48% | 1018.1 hPa | 0 mm | - | 698 W/m² | - |
| 1777796025 | 17.78° C | 48% | 1018.1 hPa | 0 mm | - | 649 W/m² | - |
| 1777795723 | 17.78° C | 50% | 1018.1 hPa | 0 mm | - | 675 W/m² | - |
| 1777795423 | 17.78° C | 51% | 1018.1 hPa | 0 mm | - | 657 W/m² | - |
| 1777795123 | 17.22° C | 50% | 1018.1 hPa | 0 mm | - | 663 W/m² | - |
| 1777794823 | 17.78° C | 51% | 1018.2 hPa | 0 mm | - | 652 W/m² | - |
| 1777794520 | 17.22° C | 50% | 1018.2 hPa | 0 mm | - | 650 W/m² | - |
| 1777794213 | 17.22° C | 50% | 1018.2 hPa | 0 mm | - | 643 W/m² | - |
| 1777793914 | 16.67° C | 52% | 1018.2 hPa | 0 mm | - | 631 W/m² | - |
| 1777793613 | 16.67° C | 51% | 1018.2 hPa | 0 mm | - | 626 W/m² | - |
| 1777793310 | 16.67° C | 50% | 1018.1 hPa | 0 mm | - | 613 W/m² | - |
| 1777793015 | 16.11° C | 51% | 1018.1 hPa | 0 mm | - | 599 W/m² | - |
| 1777792715 | 16.11° C | 51% | 1018.1 hPa | 0 mm | - | 591 W/m² | - |
| 1777792411 | 16.11° C | 51% | 1018.2 hPa | 0 mm | - | 580 W/m² | - |
| 1777792111 | 15.56° C | 51% | 1018.2 hPa | 0 mm | - | 559 W/m² | - |
| 1777791811 | 15.56° C | 52% | 1018.1 hPa | 0 mm | - | 534 W/m² | - |
| 1777791504 | 15.56° C | 53% | 1018.1 hPa | 0 mm | - | 533 W/m² | - |
| 1777791199 | 15° C | 53% | 1018.1 hPa | 0 mm | - | 513 W/m² | - |
| 1777790899 | 15° C | 52% | 1018 hPa | 0 mm | - | 503 W/m² | - |
| 1777790600 | 15° C | 51% | 1018 hPa | 0 mm | - | 490 W/m² | - |
| 1777790299 | 15° C | 53% | 1018 hPa | 0 mm | - | 475 W/m² | - |
| 1777789999 | 14.44° C | 52% | 1018 hPa | 0 mm | - | 462 W/m² | - |
| 1777789699 | 14.44° C | 52% | 1018 hPa | 0 mm | - | 446 W/m² | - |
| 1777789400 | 14.44° C | 52% | 1018 hPa | 0 mm | - | 429 W/m² | - |
| 1777789099 | 14.44° C | 52% | 1018 hPa | 0 mm | - | 415 W/m² | - |
* Rain latest hour (hover to see other rain measurements)
** Current wind speed in m/s (hover to see current wind gust speed)